Location: Napier
(39.4830°S, 176.9170°E)
Time: 02:32:30
(UTC+12:00)

Cosmos 2263 - Pass Details

Date: 15 August 2020
Orbit: 829 x 867 km, 70.9° (Epoch: 19 September)

Event Time Altitude Azimuth Distance (km) Brightness Sun altitude
Rises 19:07:00 0° 340° (NNW) 3,414 7.7 -18.4°
Reaches altitude 10° 19:09:26 10° 340° (NNW) 2,480 6.9 -18.8°
Maximum altitude 19:15:09 87° 68° (ENE) 860 4.1 -19.9°
Enters shadow 19:20:48 10° 156° (SSE) 2,458 6.4 -21.0°
